Terminal Aerodrome Forecast
Issued by NWS Blacksburg, VA

Current Version | Previous Version | Graphics & Text | Print | Product List | Glossary On
Versions: 1 2 3 4 5 6 7 8 9 10 11 12 13 14 15 16 17 18 19 20 21 22 23 24 25 26 27 28 29 30 31 32 33 34 35 36 37 38 39 40 41 42 43 44 45 46 47 48 49
000
FTUS41 KRNK 220905 AAB
TAFBLF
TAF AMD
KBLF 220905Z 2209/2306 29007KT P6SM BKN022
     FM221100 29010KT P6SM OVC018
     FM221400 31010G18KT P6SM OVC022
     FM222000 32007KT P6SM SCT025
     FM230000 VRB03KT P6SM SKC=

USA.gov is the U.S. government's official web portal to all federal, state and local government web resources and services.